Location: Sternwarte ZA, Rosenfeld-Brittheim
(48.2889°N, 8.6789°E)
Time: 09:30:00
(UTC+02:00)

Envisat - Visible Passes

Search period start: 22 August 2017 00:00
Search period end: 01 September 2017 00:00
Orbit: 764 x 766 km, 98.2° (Epoch: 21 August)

Date Brightness Start Highest point End Pass type
(mag) Time Alt. Az. Time Alt. Az. Time Alt. Az.
22 Aug 5.2 22:20:31 10° SW 22:24:28 23° W 22:28:27 10° NW visible
23 Aug 4.0 21:42:37 10° S 21:47:28 45° W 21:52:22 10° NNW visible
24 Aug 3.0 21:05:36 10° SSE 21:10:41 88° ENE 21:15:48 10° NNW visible
24 Aug 5.7 22:47:56 10° WSW 22:50:25 14° W 22:52:54 10° WNW visible
25 Aug 4.9 22:08:57 10° SSW 22:13:16 28° W 22:17:37 10° NW visible
26 Aug 3.7 21:31:21 10° S 21:36:20 56° W 21:41:21 10° NNW visible
27 Aug 3.0 20:54:32 10° SSE 20:59:35 73° ENE 21:04:41 10° N visible
27 Aug 5.5 22:35:56 10° SW 22:39:09 17° W 22:42:26 10° NW visible
28 Aug 4.5 21:57:30 10° SSW 22:02:05 34° W 22:06:42 10° NNW visible
29 Aug 3.3 21:20:09 10° S 21:25:13 70° WSW 21:30:19 10° NNW visible
30 Aug 3.1 20:43:33 10° SSE 20:48:32 59° ENE 20:53:32 10° N visible
30 Aug 5.3 22:24:10 10° SW 22:27:57 21° W 22:31:45 10° NW visible
31 Aug 4.2 21:46:08 10° SSW 21:50:56 42° W 21:55:45 10° NNW visible
